Location: Naloco
(16.5478°S, 37.1017°E)
Time: 01:56:46
(UTC+00:00)

Stardust Del rocket - Pass Details

Date: 13 August 2020
Orbit: 287 x 4201 km, 22.5° (Epoch: 22 September)

Event Time Altitude Azimuth Distance (km) Brightness Sun altitude
Rises 16:18:33 0° 251° (WSW) 2,180 7.5 -13.9°
Reaches altitude 10° 16:20:57 10° 232° (SW) 1,173 5.6 -14.5°
Maximum altitude 16:22:52 20° 178° (S) 732 3.8 -14.9°
Enters shadow 16:23:02 20° 171° (S) 736 3.8 -15.0°
